Volver al catálogo

STARLINK-31529

ActivoComunicacionesVLEO
NORAD 59000·PAYLOAD·🇺🇸 United States

Lanzado Feb 23, 2024 desde Vandenberg Space Force Base

Loading…

Próximos Pases (próximas 24 horas)

TLE

ActualizadoSource: CelesTrak SupGP

Época: Sep 14, 2026, 21:34 UTC

1 59000C 24036C   26257.89909722  .00048806  00000+0  14424-2 0  2576
2 59000  53.1572 275.5895 0001219  93.4634 282.4528 15.34356840    13

Sigue STARLINK-31529 en tiempo real con AllMySat

Download on the App Store